Tracking 19794 objects as of 21-Jul-2019
HD Live streaming from Space Station
objects crossing your sky now

FENGYUN 1C DEB

Track FENGYUN 1C DEB now!
10-day predictions


NORAD ID: 33647
Int'l Code: 1999-025DEG
Perigee: 782.2 km
Apogee: 1,186.7 km
Inclination: 98.2 °
Period: 104.6 minutes
Semi major axis: 7355 km
RCS: 0.0163 m2 (small)
Launch date: May 10, 1999
Source: People's Republic of China (PRC)
Launch site: Taiyaun Space Center, China (TSC)

Note: This is SATELLITE DEBRIS
aabbcc
Your satellite tracking list
Your tracking list is empty




NASA's NSSDC Master Catalog

Two Line Element Set (TLE):
1 33647U 99025DEG 19200.53606723  .00000064  00000-0  77510-4 0  9996
2 33647  98.2338 324.7372 0274908  14.5290 346.3570 13.76224970579603
Source of the keplerian elements: AFSPC